Volver al catálogo

STARLINK-35323

ActivoComunicacionesVLEO
NORAD 66071·PAYLOAD·🇺🇸 United States

Lanzado Oct 19, 2025 desde Cape Canaveral Space Force Station

Loading…

Próximos Pases (próximas 24 horas)

TLE

ActualizadoSource: CelesTrak SupGP

Época: Sep 15, 2026, 03:08 UTC

1 66071C 25235P   26258.13104167 -.00019014  00000+0 -56187-3 0  2587
2 66071  53.1596  84.5193 0001193  86.7027  42.8636 15.34394549    12

Sigue STARLINK-35323 en tiempo real con AllMySat

Download on the App Store